Regional Weather Roundup
Issued by NWS

Home | Current Version | Previous Version | Text Only | Print | Product List | Glossary Off
Versions: 1 2 3 4 5 6 7 8 9 10 11 12 13 14 15 16 17 18 19 20 21 22 23 24 25 26 27 28 29 30 31 32 33 34 35 36 37 38 39 40 41 42 43 44 45 46 47 48 49 50

000
ASUS43 KMKX 210611
RWRWI

WISCONSIN REGIONAL WEATHER ROUNDUP
NATIONAL WEATHER SERVICE MILWAUKEE/SULLIVAN WI
100 AM CDT SUN SEP 21 2014

NOTE: "FAIR" INDICATES FEW OR NO CLOUDS BELOW 12,000 FEET WITH NO
SIGNIFICANT WEATHER AND/OR OBSTRUCTIONS TO VISIBILITY.

WIZ001-002-006>008-014>016-023>028-210700-
NORTHWEST WISCONSIN

CITY           SKY/WX    TMP DP  RH WIND       PRES   REMARKS
SUPERIOR ARPT  LGT RAIN  54  53  95 NW14      29.75R
6HR MIN TEMP:  54; 6HR MAX TEMP:  57; 6HR PCP:  0.48;

ASHLAND        RAIN      54  53  97 NW5       29.72R FOG
6HR MIN TEMP:  53; 6HR MAX TEMP:  60; 6HR PCP:  0.14;

HAYWARD        LGT RAIN  53  52  96 VRB6      29.72R
6HR MIN TEMP:  53; 6HR MAX TEMP:  64; 6HR PCP:  0.35;

SIREN          LGT RAIN  50  48  93 NW12G21   29.79R
6HR MIN TEMP:  50; 6HR MAX TEMP:  56; 6HR PCP:  0.09;

RICE LAKE      RAIN      54  50  87 W14G20    29.76S
6HR MIN TEMP:  54; 6HR MAX TEMP:  64;

LADYSMITH      CLOUDY    55  53  92 W13       29.72F
6HR MIN TEMP:  55; 6HR MAX TEMP:  63; 6HR PCP:  0.31;

EAU CLAIRE     MOCLDY    56  49  77 W10       29.75F
6HR MIN TEMP:  55; 6HR MAX TEMP:  68; 6HR PCP:  0.17;

MENOMONIE      PTCLDY    57  50  76 W14G21    29.77F
6HR MIN TEMP:  56; 6HR MAX TEMP:  69; 6HR PCP:  0.10;

NEW RICHMOND   PTCLDY    55  48  78 NW15G23   29.81R
6HR MIN TEMP:  54; 6HR MAX TEMP:  59;

OSCEOLA        PTCLDY    56  48  76 NW16G24   29.84R
6HR MIN TEMP:  55; 6HR MAX TEMP:  60;

$$

WIZ003>005-009-010-017-018-210700-
NORTH CENTRAL WISCONSIN

CITY           SKY/WX    TMP DP  RH WIND       PRES   REMARKS
WOODRUFF       DRIZZLE   53  51  93 CALM      29.69S
6HR MIN TEMP:  53; 6HR MAX TEMP:  62; 6HR PCP:  0.09;

RHINELANDER    CLOUDY    52  51  97 W6        29.69S
6HR MIN TEMP:  52; 6HR MAX TEMP:  63; 6HR PCP:  0.27;

EAGLE RIVER    HVY RAIN  52  52  99 N6        29.68F
6HR MIN TEMP:  52; 6HR MAX TEMP:  60; 6HR PCP:  0.22;

LAND O LAKES   HVY RAIN  53  51  92 W5        29.69F
6HR MIN TEMP:  50; 6HR MAX TEMP:  59;

PHILLIPS       LGT RAIN  52  52  99 W3        29.68F
6HR MIN TEMP:  52; 6HR MAX TEMP:  62; 6HR PCP:  0.29;

TOMAHAWK       CLOUDY    51  50  96 CALM      29.70S
6HR MIN TEMP:  50; 6HR MAX TEMP:  60; 6HR PCP:  0.24;

MEDFORD        DRIZZLE   54  52  94 W13G21    29.70F
6HR MIN TEMP:  53; 6HR MAX TEMP:  63; 6HR PCP:  0.15;

MERRILL        MOCLDY    53  52  98 W5        29.69S
6HR MIN TEMP:  52; 6HR MAX TEMP:  65; 6HR PCP:  0.28;

$$

WIZ029-030-035-036-043>047-210700-
CENTRAL WISCONSIN

CITY           SKY/WX    TMP DP  RH WIND       PRES   REMARKS
WAUSAU         CLOUDY    55  53  93 W9        29.69S
6HR MIN TEMP:  54; 6HR MAX TEMP:  67; 6HR PCP:  0.18;

MOSINEE        CLOUDY    54  54 100 W8        29.71F
MARSHFIELD     MOCLDY    56  52  86 W15       29.72F
6HR MIN TEMP:  55; 6HR MAX TEMP:  64; 6HR PCP:  0.07;

STEVENS POINT  CLOUDY    53  52  96 W5        29.71S
6HR MIN TEMP:  53; 6HR MAX TEMP:  67; 6HR PCP:  0.26;

WAUPACA        CLEAR     57  55  95 W7        29.70F
6HR MIN TEMP:  57; 6HR MAX TEMP:  69; 6HR PCP:  0.18;

WAUTOMA        CLOUDY    59  55  88 W13G24    29.72F
6HR MIN TEMP:  58; 6HR MAX TEMP:  69; 6HR PCP: TRACE;

WISC RAPIDS    MOCLDY    56  53  90 W13       29.74F
6HR MIN TEMP:  56; 6HR MAX TEMP:  66; 6HR PCP:  0.11;

CAMP DOUGLAS   CLEAR     55  55 100 W10       29.76F
6HR MIN TEMP:  55; 6HR MAX TEMP:  63; 6HR PCP:  0.09;

$$

WIZ011>013-019>022-031-037>040-048>050-210700-
NORTHEAST WISCONSIN

CITY           SKY/WX    TMP DP  RH WIND       PRES   REMARKS
ANTIGO         CLOUDY    52  52  99 W7        29.69S
6HR MIN TEMP:  51; 6HR MAX TEMP:  64; 6HR PCP:  0.05;

STURGEON BAY   CLOUDY    57  54  88 N6        29.66R
6HR MIN TEMP:  57; 6HR MAX TEMP:  68;

GREEN BAY      CLOUDY    57  55  93 W7        29.67F
6HR MIN TEMP:  57; 6HR MAX TEMP:  69; 6HR PCP:  0.15;

MANITOWOC      CLOUDY    58  56  93 W7        29.65F
6HR MIN TEMP:  58; 6HR MAX TEMP:  69; 6HR PCP:  0.08;

APPLETON       PTCLDY    54  54 100 W9        29.69S
CLINTONVILLE   PTCLDY    55  54  94 W3        29.68S
OSHKOSH        PTCLDY    58  56  93 W5        29.69S
6HR MIN TEMP:  58; 6HR MAX TEMP:  67; 6HR PCP:  0.15;

$$

WIZ032>034-041-042-053>061-210700-
SOUTHWEST WISCONSIN

CITY           SKY/WX    TMP DP  RH WIND       PRES   REMARKS
LA CROSSE      CLEAR     59  51  75 W10       29.80F
6HR MIN TEMP:  59; 6HR MAX TEMP:  71; 6HR PCP:  0.08;

SPARTA         CLEAR     55  50  85 W6        29.79F
VIROQUA        FAIR      55  54  99 W8        29.81F
6HR MIN TEMP:  55; 6HR MAX TEMP:  67; 6HR PCP:  0.14;

BOSCOBEL       CLEAR     60  53  77 VRB6      29.83R
6HR MIN TEMP:  60; 6HR MAX TEMP:  74; 6HR PCP:  0.12;

PRAIRIE DU CHI CLEAR     57  53  84 W5        29.85S
6HR MIN TEMP:  57; 6HR MAX TEMP:  72; 6HR PCP:  0.29;

PLATTEVILLE    FAIR      58  55  90 W13G18    29.84S
6HR MIN TEMP:  58; 6HR MAX TEMP:  71; 6HR PCP:  0.14;

$$

WIZ056-057-062-063-064-067-068-210700-
SOUTH CENTRAL WISCONSIN

CITY           SKY/WX    TMP DP  RH WIND       PRES   REMARKS
BARABOO/DELLS  CLEAR     57  52  84 W13G21    29.76S
6HR MIN TEMP:  57; 6HR MAX TEMP:  68; 6HR PCP:  0.05;

LONE ROCK      CLEAR     63  53  70 NW14G21   29.80R
6HR MIN TEMP:  63; 6HR MAX TEMP:  75; 6HR PCP:  0.09;

WATERTOWN      MOCLDY    59  59  99 W10       29.72R
6HR MIN TEMP:  59; 6HR MAX TEMP:  71; 6HR PCP:  0.07;

MADISON        PTCLDY    61  56  83 NW14G22   29.76R
6HR MIN TEMP:  61; 6HR MAX TEMP:  73; 6HR PCP:  0.07;

MIDDLETON      MOCLDY    61  58  90 NW17G24   29.77R
6HR MIN TEMP:  61; 6HR MAX TEMP:  71; 6HR PCP:  0.07;

MONROE         MOCLDY    61  57  88 W21G28    29.78R
JANESVILLE     MOCLDY    63  59  88 W13       29.74R
$$

WIZ051-052-058>065-066-070>072-210700-
SOUTHEAST WISCONSIN

CITY           SKY/WX    TMP DP  RH WIND       PRES   REMARKS
MILWAUKEE      MOCLDY    63  60  90 W8        29.68F
6HR MIN TEMP:  63; 6HR MAX TEMP:  72; 6HR PCP:  0.20;

WAUKESHA       MOCLDY    59  59 100 W7        29.72R
MILWAUKEE/TIMM MOCLDY    59  55  88 W8        29.69S
RACINE         CLOUDY    63  60  90 W8        29.69F
6HR MIN TEMP:  63; 6HR MAX TEMP:  70; 6HR PCP:  0.19;

BURLINGTON     CLOUDY    60  58  93 NW8       29.72R
6HR MIN TEMP:  60; 6HR MAX TEMP:  65; 6HR PCP:  0.13;

KENOSHA        CLOUDY    63  62  97 W8        29.68F
6HR MIN TEMP:  63; 6HR MAX TEMP:  69; 6HR PCP:  0.08;

FOND DU LAC    PTCLDY    58  55  90 W7        29.70S
6HR MIN TEMP:  58; 6HR MAX TEMP:  69; 6HR PCP:  0.13;

SHEBOYGAN      CLOUDY    58  55  90 MISG      29.66F
6HR MIN TEMP:  58; 6HR MAX TEMP:  67; 6HR PCP:  0.05;

WEST BEND      PTCLDY    57  54  88 W6        29.69S
JUNEAU         MOCLDY    58  57  94 W7        29.73R
6HR MIN TEMP:  58; 6HR MAX TEMP:  68; 6HR PCP:  0.29;

$$

LSZ147-162-210700-
LAKE SUPERIOR

STATION/POSITION TIME  TEMP    WIND        PRES    WAVE
                       AIR SEA DIR/SP/G            HT/PER
                 (UTC) (F)     (DEG/KT/KT) (MB)    (FT/S)
W MID LAKE BUOY  0550   49 46   30/ 14/ 16 1006.6R   1/ 2
DEVILS ISLAND    0600   52      60/ 21/ 22 1006.8R
PORT WING        0540   54     300/  6/  7 1006.8R
SAXON HARBOR     0500   56      CALM  /  5 1005.4S
$$

LMZ867-665-643>646-210700-
LAKE MICHIGAN

STATION/POSITION TIME  TEMP    WIND        PRES    WAVE
                       AIR SEA DIR/SP/G            HT/PER
                 (UTC) (F)     (DEG/KT/KT) (MB)    (FT/S)
N MID LAKE BUOY  0550   57 58   60/ 12/ 14 1003.8F   2/ 6
NORTHPORT PIER   0500   58      40/  5/ 11 1004.7F
SISTER BAY       0512             CALM       N/A
KEWAUNEE LAKESHO 0500   62      CALM  /  2 1003.2S
SHEBOYGAN LAKESH 0600   60 54  290/  8/ 10 1004.1F
PORT WASHINGTON  0500   62     280/  8/ 14 1006.1
ATWATER BUOY     0600   59     270/  8/ 10 1006.1F
MILWAUKEE LAKESH 0500   64     310/  9/ 13   N/A
S MID LAKE BUOY  0550   66 64  210/ 10/ 12 1004.2F   1/ 3
KENOSHA   LAKESH 0600   65     240/  6/  8 1004.7F
$$

TC  - TEMPERATURE IN CELSIUS
VSB - VISIBILITY IN STATUTE MILES
WCI - WIND CHILL INDEX
HX  - HEAT INDEX




USA.gov is the U.S. government's official web portal to all federal, state and local government web resources and services.